Weather observations for the past three days for
Boise Air Terminal
Imperial (Metric)
Date Time (mdt) Wind (mph) Vis. (mi.) Weather Sky Cond. Temperature (ºF) Relative Humidity Wind Chill (°F) Heat Index (°F) Pressure Precipitation (in)
Air Dwpt 6 hour altimeter (in) sea level (mb) 1 hr 3 hr 6 hr
Max. Min.
09 16:53 N 12 10.00 Fair CLR 75 28.9 18% 76 30.06 1016.3
09 15:53 W 13 G 22 10.00 Fair CLR 73.9 28.9 19% 30.08 1017.0
09 14:53 NW 12 G 24 10.00 Fair CLR 73 32 22% 30.11 1017.8
09 13:53 NW 10 10.00 Fair CLR 70 34 27% 30.12 1018.3
09 12:53 NW 9 10.00 Fair CLR 69.1 33.1 26% 30.14 1018.9
09 11:53 NW 13 10.00 Fair CLR 66 35.1 66 45 32% 30.15 1019.3
09 10:53 W 12 10.00 Fair CLR 63 37 38% 30.15 1019.4
09 09:53 W 10 10.00 Fair CLR 59 36 42% 30.15 1019.3
09 08:53 NW 7 10.00 Fair CLR 55.9 36 47% 30.15 1019.3
09 07:53 W 8 10.00 Fair CLR 52 35.1 53% 30.14 1018.9
09 06:53 W 5 10.00 Fair CLR 45 33.1 63% 43 30.12 1018.8
09 05:53 SE 3 10.00 Fair CLR 48 34 61 48 58% 30.11 1018.3
09 04:53 Calm 10.00 Fair CLR 50 35.1 57% 30.1 1017.8
09 03:53 W 5 10.00 Fair CLR 52 32 47% 30.09 1017.2
09 02:53 NW 9 10.00 Fair CLR 53.1 32 45% 30.08 1017.0
09 01:53 W 8 10.00 Fair CLR 55.9 35.1 46% 30.07 1016.3
09 00:53 W 8 10.00 Fair CLR 59 36 42% 30.04 1015.4
08 23:53 W 7 10.00 Fair CLR 61 36 75.9 60.1 39% 30.02 1014.6
08 22:53 NW 7 10.00 Fair CLR 64 35.1 34% 30 1014.1
08 21:53 N 5 10.00 Fair CLR 66.9 34 30% 29.98 1013.2
08 20:53 N 5 10.00 Fair CLR 68 32 26% 29.96 1012.7
08 19:53 N 8 10.00 Fair CLR 73 30.9 21% 29.95 1012.2
08 18:53 N 9 10.00 Fair CLR 75 28.9 18% 76 29.95 1012.5
08 17:53 N 9 10.00 Fair CLR 73.9 28 77 69.1 18% 29.96 1012.8
08 16:53 N 10 10.00 Fair CLR 73.9 28 18% 29.96 1012.9
08 15:53 N 12 G 18 10.00 Fair CLR 75.9 34 22% 77 29.99 1013.6
08 14:53 N 9 10.00 Fair CLR 73 30.9 21% 29.99 1013.9
08 13:53 Vrbl 6 G 17 10.00 Fair CLR 73 28 19% 30 1014.2
08 12:53 NW 9 10.00 Fair CLR 73 33.1 23% 30.02 1014.5
08 11:53 W 8 10.00 Fair CLR 70 34 70 48.9 27% 30.03 1015.0
08 10:53 NW 5 10.00 Fair CLR 66 37.9 36% 30.03 1015.0
08 09:53 Vrbl 3 10.00 Fair CLR 62.1 37.9 41% 30.03 1015.2
08 08:53 Calm 10.00 Fair CLR 59 37.9 46% 30.03 1015.0
08 07:53 SE 7 10.00 Fair CLR 54 37 53% 30.01 1014.6
08 06:53 SE 8 10.00 Fair CLR 50 36 59% 47 29.99 1013.8
08 05:53 SE 8 10.00 Fair CLR 50 36 61 50 59% 47 29.98 1013.5
08 04:53 SE 5 10.00 Fair CLR 51.1 36 56% 29.98 1013.4
08 03:53 S 3 10.00 Fair CLR 53.1 37 55% 29.96 1012.7
08 02:53 S 5 10.00 Fair CLR 53.1 36 52% 29.95 1012.5
08 01:53 SE 7 10.00 Fair CLR 55 36 49% 29.95 1012.4
08 00:53 Calm 10.00 Fair CLR 59 36 42% 29.94 1011.9
07 23:53 Calm 10.00 Fair CLR 60.1 35.1 77 60.1 39% 29.93 1011.6
07 22:53 NW 3 10.00 Fair CLR 64.9 35.1 33% 29.93 1011.4
07 21:53 W 5 10.00 Fair CLR 68 33.1 27% 29.92 1011.1
07 20:53 NW 6 10.00 Fair CLR 69.1 32 25% 29.9 1010.6
07 19:53 N 10 10.00 Fair CLR 73.9 32 21% 29.89 1010.4
07 18:53 N 14 10.00 Fair CLR 75.9 34 22% 77 29.9 1010.6
07 17:53 N 10 G 23 10.00 Fair CLR 75.9 36 78.1 68 23% 77 29.91 1010.9
07 16:53 N 12 G 23 10.00 Fair CLR 77 37 24% 77 29.92 1011.2
07 15:53 W 8 G 18 10.00 Fair CLR 77 37 24% 77 29.94 1011.7
07 14:53 NW 14 G 18 10.00 Fair CLR 75 37 25% 77 29.96 1012.5
07 13:53 Calm 10.00 Fair CLR 73 34 24% 29.97 1012.9
07 12:53 NW 13 10.00 Fair CLR 72 37 28% 29.99 1013.6
07 11:53 NW 7 10.00 Fair CLR 70 37.9 70 51.1 31% 30.01 1014.0
07 10:53 NW 9 10.00 Fair CLR 69.1 37 31% 30.01 1014.1
07 09:53 Vrbl 5 10.00 Fair CLR 64.9 39.9 40% 30.02 1014.5
07 08:53 Calm 10.00 Fair CLR 60.1 41 50% 30.02 1014.7
07 07:53 SE 3 10.00 Fair CLR 55.9 42.1 60% 30.01 1014.3
07 06:53 Calm 10.00 Fair CLR 52 43 72% 29.99 1013.9
07 05:53 S 3 10.00 Fair CLR 52 44.1 66 51.1 75% 29.98 1013.4
07 04:53 S 3 10.00 Fair CLR 53.1 44.1 72% 29.98 1013.5
07 03:53 Calm 10.00 Fair CLR 57 44.1 62% 29.98 1013.1
07 02:53 Calm 10.00 Fair CLR 57 44.1 62% 29.97 1013.1
07 01:53 Calm 10.00 Fair CLR 61 44.1 54% 29.96 1012.6
07 00:53 Calm 10.00 Fair CLR 62.1 45 54% 29.96 1012.8
06 23:53 S 3 10.00 A Few Clouds FEW110 64.9 45 78.1 64.9 49% 29.96 1012.6
06 22:53 N 3 10.00 Mostly Cloudy BKN110 68 45 44% 29.94 1012.0
06 21:53 SE 6 10.00 Mostly Cloudy BKN100 69.1 43 39% 29.94 1011.9
06 20:53 E 3 10.00 Overcast OVC110 73.9 39.9 29% 29.93 1011.4
06 19:53 Calm 10.00 Fair CLR 75 39.9 28% 77 29.94 1012.1
06 18:53 N 7 10.00 Fair CLR 75.9 39 26% 77 29.95 1012.7
06 17:53 N 8 10.00 Fair CLR 77 37.9 78.1 64.9 24% 77 29.97 1013.0
Date Time (mdt) Wind (mph) Vis. (mi.) Weather Sky Cond. Air Dwpt Max. Min. Relative Humidity Wind Chill (°F) Heat Index (°F) altimeter (in) sea level (mb) 1 hr 3 hr 6 hr
6 hour
Temperature (ºF) Pressure Precipitation (in)